{"data":{"norad_id":49291,"epoch":"2026-09-20T00:48:14.683392Z","epoch_age_seconds":66001,"freshness":"FRESH","line1":"1 49291U 21090N   26263.03350328  .00000083  00000+0  17481-3 0  9994","line2":"2 49291  87.9107 286.0726 0001883  92.5955 267.5393 13.19727194238939","mean_motion":13.19727194,"eccentricity":0.0001883,"inclination_deg":87.9107,"raan_deg":286.0726,"arg_perigee_deg":92.5955,"mean_anomaly_deg":267.5393,"bstar":0.00017481,"rev_number":23893,"period_min":109.11345970188,"perigee_km":1184.3378866286,"apogee_km":1187.1864510556,"semimajor_km":7563.8991688421,"source":"CELESTRAK","updated_at":"2026-09-20T09:00:44.671079Z"}}